星链-3226 (STARLINK-3226 )

导读 | 豆包AI

STARLINK-3226是SpaceX星链星座中的一颗卫星,由美国于北京时间2021年12月2日08时发射入轨。星链项目旨在构建全球卫星互联网星座,为全球各地提供高速互联网接入服务,该卫星是星链批量发射部署计划中的组成部分,服务于星座全球覆盖的组网目标。

基本信息
目录编号:
49740
目录名称:
STARLINK-3226
国际标识:
2021-115S
轨道中心:
EARTH
卫星名称:
星链-3226
卫星全名:
星链-3226 (STARLINK-3226 )
卫星状态:
在轨 (已飞行1563 天)
发射日期:
2021-12-02 UTC
国别 :
美国 (US)
星等 :
--
轨道信息
数据来源 国际轨道数据
星历时间: 2026-03-14T04:38:46+0800
21小时前
查看轨道信息
半长轴: 6917.916km
偏心率: 0.0001136
轨道倾角: 53.216°
近地点辐角 87.290°
升交点赤经 130.368°
平近点角 272.822°
近地点: 538.993km
远地点: 540.565km
周期: 95.438分钟
每日圈数: 15.088285
详细信息
固有亮度:
5
最大亮度:
2.5
卫星平台:
Starlink v1.5
覆盖范围:
全球
运营商:
太空探索技术公司
运营商所在国:
美国
制造商(研发单位):
太空探索技术公司
制造商所在国:
美国
使用方式:
暂无
卫星简介
星链(Starlink)计划是由太空探索技术公司(SpaceX)提出的一个巨型低轨卫星互联网星座项目,计划在2019年至2024年间在太空搭建由约1.2万颗卫星组成的“星链”网络,其中1584颗将部署在地球上空550千米处的近地轨道,并从2020年开始工作。该卫星仍在工作。
2D轨道图
3D轨道图
轨道高度分析图
轨道倾角分析图
轨道综合分析图
查看轨道综合分析图